Regional Weather Roundup
Issued by NWS Jackson, KY

Home | Current Version | Previous Version | Graphics & Text | Print | Product List | Glossary On
Versions: 1 2 3 4 5 6 7 8 9 10 11 12 13 14 15 16 17 18 19 20 21 22 23 24 25 26 27 28 29 30 31 32 33 34 35 36 37 38 39 40 41 42 43 44 45 46 47 48 49 50
000
ASUS43 KJKL 020510
RWRJKL

EAST KENTUCKY HOURLY WEATHER ROUNDUP
NATIONAL WEATHER SERVICE JACKSON KY
100 AM EDT SUN AUG 02 2015

NOTE: "FAIR" INDICATES FEW OR NO CLOUDS BELOW 12,000 FEET WITH
NO SIGNIFICANT WEATHER AND/OR OBSTRUCTIONS TO VISIBILITY.

* THESE REPORTS ARE NOT UNDER NWS QUALITY CONTROL AND MAY NOT
  REPORT WEATHER SUCH AS PRECIPITATION AND FOG.

KYZ079-080-083-085-087-088-110-112-115-119-120-020600
...EASTERN KENTUCKY...

CITY           SKY/WX    TMP DP  RH WIND       PRES   REMARKS
JACKSON        PTCLDY    68  60  75 W3        30.03R
LONDON         PTCLDY    65  60  84 CALM      30.03R
SOMERSET*      PTCLDY    63  63 100 CALM      30.03S
MONTICELLO*    CLEAR     62  62 100 CALM      30.05S
WILLIAMSBURG*  CLEAR     64  64 100 CALM      30.02
MIDDLESBORO*   CLEAR     65  63  94 CALM      30.03S
HAZARD APT*    CLEAR     64  64 100 CALM      30.03R
BLACK MTN*       N/A     61  55  82 N2          N/A
PIKEVILLE APT* CLEAR     68  63  83 CALM      30.02S
BIG SANDY*     CLEAR     66  63  90 CALM      30.02R
MOREHEAD APT*  CLEAR     64  63  94 S3        30.03R
$$

KYZ035-036-041-042-044-050-067-078-099-020600
...CENTRAL KENTUCKY...

CITY           SKY/WX    TMP DP  RH WIND       PRES   REMARKS
MT STERLING*   CLEAR     63  63 100 CALM      30.03R
FLEMING/MASON* CLEAR     66  61  82 W5        30.02R
DANVILLE*      PTCLDY    63  61  94 CALM      30.03S
RICHMOND*      PTCLDY    64  59  82 CALM      30.02R
LEXINGTON      PTCLDY    65  60  84 CALM      30.02R
FRANKFORT      MOCLDY    66  61  84 CALM      30.01R
$$

KYZ091>093-OHZ055-061-077-WVZ005-015-034-035-042-020600
...SOUTHERN OHIO/WEST VIRGINIA...

CITY           SKY/WX    TMP DP  RH WIND       PRES   REMARKS
COVINGTON      PTCLDY    67  60  78 W6        30.00S
COLUMBUS       MOCLDY    69  57  65 CALM      29.96S
DAYTON         PTCLDY    66  58  75 SW6       29.99S
WILMINGTON     CLEAR     64  58  80 SW3       30.00R
HUNTINGTON     CLEAR     64  61  90 CALM      29.99S
CHARLESTON     PTCLDY    64  60  87 CALM      29.99F
PINEVILLE*     CLEAR     60  60 100 MISG      30.09S
BECKLEY        CLEAR     61  55  81 SE3       30.07S
BLUEFIELD      CLEAR     65  57  75 W3        30.09R
$$

VAZ002-007-008-TNZ017-027-036-066-071-020600
...SOUTHWEST VIRGINIA/EAST TENNESSEE...

CITY           SKY/WX    TMP DP  RH WIND       PRES   REMARKS
WISE*          CLEAR     66  55  68 CALM      30.09S
ABINGDON*      CLEAR     65  60  83 CALM      30.06S
BRISTOL        PTCLDY    64  61  90 N5        30.02S
KNOXVILLE      PTCLDY    72  66  81 CALM      29.99S
OAK RIDGE      CLEAR     69  64  84 CALM      30.01S
CROSSVILLE     PTCLDY    68  61  78 CALM      30.06S
NASHVILLE      CLEAR     75  55  49 CALM      30.00S
$$

...KEY TO REMARKS...
VSB - VISIBILITY IN MILES
WCI - WIND CHILL INDEX
HX  - HEAT INDEX

$$



USA.gov is the U.S. government's official web portal to all federal, state and local government web resources and services.